TimeMST,TemperatureF,Dew PointF,Humidity,Sea Level PressureIn,VisibilityMPH,Wind Direction,Wind SpeedMPH,Gust SpeedMPH,PrecipitationIn,Events,Conditions,WindDirDegrees,DateUTC
12:58 AM,7.3,-1.1,68,30.68,10.0,WSW,4.6,-,N/A,,Clear,250,2013-11-22 07:58:00
1:58 AM,9.9,-3.1,56,30.65,10.0,SW,4.6,-,N/A,,Clear,230,2013-11-22 08:58:00
2:58 AM,10.6,-4.2,51,30.64,10.0,SW,8.1,-,N/A,,Clear,230,2013-11-22 09:58:00
3:58 AM,12.0,-5.1,46,30.61,10.0,SW,5.8,-,N/A,,Clear,230,2013-11-22 10:58:00
4:58 AM,12.7,-5.6,44,30.62,10.0,WSW,9.2,-,N/A,,Clear,250,2013-11-22 11:58:00
5:58 AM,18.3,-10.8,27,30.60,10.0,WSW,5.8,-,N/A,,Clear,240,2013-11-22 12:58:00
6:58 AM,18.9,-11.9,25,30.61,10.0,Calm,Calm,-,N/A,,Clear,0,2013-11-22 13:58:00
7:58 AM,22.3,-9.9,24,30.61,10.0,SSE,3.5,-,N/A,,Clear,160,2013-11-22 14:58:00
8:58 AM,18.3,1.0,47,30.68,10.0,North,11.5,-,N/A,,Clear,10,2013-11-22 15:58:00
9:58 AM,25.7,-0.8,32,30.66,10.0,North,4.6,-,N/A,,Clear,350,2013-11-22 16:58:00
10:58 AM,34.0,1.9,26,30.65,10.0,North,13.8,-,N/A,,Clear,10,2013-11-22 17:58:00
11:58 AM,36.1,4.5,27,30.62,10.0,North,17.3,-,N/A,,Clear,360,2013-11-22 18:58:00
12:58 PM,37.6,4.6,25,30.62,10.0,North,19.6,26.5,N/A,,Clear,360,2013-11-22 19:58:00
1:58 PM,37.4,3.6,24,30.64,10.0,North,19.6,-,N/A,,Clear,350,2013-11-22 20:58:00
2:58 PM,36.9,5.7,27,30.65,10.0,North,17.3,24.2,N/A,,Clear,350,2013-11-22 21:58:00
3:58 PM,34.2,8.8,35,30.67,10.0,North,16.1,-,N/A,,Clear,10,2013-11-22 22:58:00
4:58 PM,30.7,8.6,40,30.67,10.0,North,13.8,-,N/A,,Clear,360,2013-11-22 23:58:00
5:59 PM,30.7,8.1,39,30.68,10.0,North,13.8,-,N/A,,Clear,360,2013-11-23 00:59:00
6:58 PM,26.8,10.6,51,30.72,10.0,NE,15.0,-,N/A,,Clear,40,2013-11-23 01:58:00
7:58 PM,19.4,10.9,70,30.75,10.0,NNE,5.8,-,N/A,,Clear,20,2013-11-23 02:58:00
8:58 PM,16.5,10.2,76,30.79,10.0,SSW,1.2,-,N/A,,Scattered Clouds,200,2013-11-23 03:58:00
9:58 PM,17.6,10.2,73,30.76,10.0,Calm,Calm,-,N/A,,Mostly Cloudy,0,2013-11-23 04:58:00
10:58 PM,17.1,9.7,73,30.75,10.0,NNE,2.3,-,N/A,,Clear,30,2013-11-23 05:58:00
11:58 PM,12.2,7.3,81,30.77,10.0,South,2.3,-,N/A,,Clear,190,2013-11-23 06:58:00